Temp
61 62 62 63 64 64 65 66 67 69 71 71 72 71 71 71 71 71 73 72 70 71 72 71 70 70 70 70 70 69 69 68 68 74 69 69 69 70 73 72 73 71 71
60 60 61 62 62 62 64 65 66 66 68 71 71 71 71 69 67 68 69 64 64 64 64 67 69 71 70 70 70 69 69 69 69 69 70 67 68 69 70 71 72 73 71
60 60 60 63 63 64 63 64 65 66 67 69 71 70 68 67 66 67 66 64 65 65 66 65 67 68 69 69 70 69 69 70 69 70 70 67 68 68 68 69 69 70 71
59 59 60 61 61 62 64 63 64 65 66 67 68 69 69 67 67 66 67 65 66 67 67 68 67 66 69 70 70 70 71 69 68 68 69 69 67 67 68 67 67 67 68
58 59 60 61 61 62 62 63 64 63 65 66 67 68 69 67 68 66 66 66 65 66 68 69 70 69 69 70 71 70 71 69 69 68 68 67 66 65 67 67 66 67 67
58 59 60 60 61 61 62 63 64 64 64 64 65 68 67 69 66 64 67 65 66 66 65 67 69 69 67 66 67 68 70 69 70 69 70 69 68 67 67 66 66 64 64
57 60 60 60 60 62 63 63 63 63 63 63 64 68 68 69 63 63 65 66 65 64 63 64 65 70 69 70 65 65 65 66 68 71 69 69 68 69 68 65 65 64 65
57 59 60 60 61 62 63 63 63 62 62 63 65 68 68 69 62 60 63 66 64 64 64 64 65 67 67 67 66 66 67 69 68 69 71 71 71 70 70 68 66 66 65
55 57 60 62 60 62 62 62 63 62 61 64 64 64 65 68 60 59 60 65 64 65 65 65 66 65 64 61 65 64 64 66 64 63 64 65 63 63 66 67 65 64 63
55 58 60 61 61 62 62 62 62 63 62 63 64 64 62 64 56 56 58 65 64 65 66 65 62 64 59 58 63 64 63 65 67 68 66 63 62 65 63 70 67 64 63
56 61 62 62 61 62 62 62 62 62 63 63 63 63 63 61 58 53 56 65 65 64 64 64 66 58 56 56 56 65 65 65 66 67 67 67 67 67 66 66 67 67 64
58 60 61 61 61 62 61 61 61 61 62 62 61 62 61 61 57 55 54 57 60 64 63 65 61 54 53 53 54 56 56 59 67 66 66 65 66 66 66 66 66 67 67
57 62 62 61 61 60 58 58 58 59 60 60 58 58 59 59 61 52 52 54 57 62 63 56 51 49 50 54 53 55 57 65 65 64 63 63 64 65 66 66 66 67 67
60 61 59 59 59 59 58 58 55 55 57 57 57 55 55 55 54 57 61 62 60 62 60 60 58 57 56 57 60 61 62 64 63 62 62 62 63 64 63 64 63 64 64
58 60 62 62 57 58 57 54 55 52 50 57 57 56 56 56 51 44 46 58 60 58 61 62 62 62 62 62 62 62 63 63 62 62 62 61 62 61 60 62 62 61 61
58 60 61 59 61 58 57 58 50 48 45 42 42 48 50 44 43 42 42 42 43 47 58 58 60 60 60 61 61 61 61 59 59 59 59 59 58 59 58 58 58 59 59
58 60 60 60 62 59 60 56 57 57 46 43 42 42 42 43 43 42 41 42 43 48 59 57 58 59 60 59 59 60 58 58 59 59 59 58 58 58 58 57 57 57 58
61 57 60 59 61 59 58 57 56 56 57 60 49 45 42 41 41 42 44 52 62 59 58 61 60 59 59 59 59 58 57 56 56 57 57 58 58 58 57 56 56 55 57
60 61 61 59 59 58 58 57 57 56 56 55 56 53 49 45 43 46 47 55 55 55 56 60 59 58 57 57 56 57 57 57 57 56 55 57 57 57 56 55 55 52 53
59 60 60 61 62 62 59 58 56 56 54 55 55 53 53 56 56 56 56 56 56 55 54 54 56 56 57 56 56 56 56 55 55 55 55 56 56 56 56 57 56 54 54
58 63 59 61 60 57 55 56 57 60 58 57 53 51 47 56 53 53 54 54 54 54 54 54 52 53 53 54 55 55 53 53 52 53 54 54 55 56 56 56 56 57 55
56 56 55 55 55 55 55 55 56 57 57 57 55 53 48 53 53 53 53 54 53 54 53 51 50 49 50 49 51 52 51 51 51 51 51 52 53 54 54 54 54 54 53
55 55 54 53 56 56 57 56 53 53 53 52 52 53 53 51 51 50 51 51 51 51 50 50 49 48 48 47 49 48 49 48 48 50 49 50 51 50 52 53 53 53 52
54 54 53 53 56 56 54 56 52 51 52 51 50 50 49 49 49 49 48 48 49 49 49 48 47 46 46 45 44 44 47 47 47 47 49 48 49 47 49 49 51 53 54
52 52 51 48 50 52 52 50 48 48 48 48 47 47 46 47 47 47 47 46 47 46 47 47 44 45 45 44 43 40 31 30 35 35 44 46 45 45 45 44 44 45 48
51 50 47 47 46 46 46 45 45 45 45 46 45 44 44 44 44 44 43 44 44 44 45 45 46 44 43 42 38 33 31 30 33 31 37 42 42 41 41 41 42 42 43
MSLP
1013.26 1012.98 1012.71 1012.30 1011.81 1011.30 1010.79 1010.28 1009.87 1009.34 1008.88 1008.49 1008.19 1008.00 1008.00 1008.08 1008.03 1008.41 1008.68 1009.12 1007.21 1009.97 1009.58 1009.93 1010.74 1011.26 1011.65 1011.96 1012.26 1012.68 1013.36 1013.67 1013.62 1012.83 1012.89 1012.84 1012.86 1012.76 1012.43 1012.27 1012.40 1012.41 1012.21
1013.29 1013.06 1012.64 1012.13 1011.66 1011.12 1010.43 1009.81 1009.29 1008.80 1008.26 1007.73 1007.32 1007.04 1006.93 1007.07 1007.04 1007.22 1007.95 1008.74 1009.11 1009.41 1008.48 1010.50 1009.39 1010.35 1010.90 1011.09 1011.31 1011.61 1012.02 1012.57 1012.86 1012.53 1012.31 1012.53 1012.59 1012.35 1012.28 1012.09 1012.01 1011.83 1011.79
1013.11 1012.73 1012.31 1011.76 1011.22 1010.56 1009.97 1009.25 1008.65 1008.11 1007.50 1006.97 1006.56 1006.18 1006.06 1006.18 1006.25 1006.20 1006.40 1007.24 1007.48 1007.28 1008.14 1009.14 1008.93 1010.31 1010.41 1010.40 1010.37 1010.56 1010.87 1011.59 1011.90 1012.00 1011.69 1011.67 1011.85 1011.98 1012.04 1012.01 1011.71 1011.48 1011.23
1012.90 1012.44 1011.92 1011.33 1010.84 1010.22 1009.55 1008.97 1008.24 1007.45 1006.79 1006.23 1005.66 1005.18 1005.01 1005.11 1005.20 1005.37 1005.72 1006.24 1006.48 1006.59 1006.31 1005.93 1005.92 1008.13 1008.77 1008.82 1009.28 1009.57 1009.91 1010.61 1011.08 1011.34 1011.36 1011.26 1011.27 1011.36 1011.57 1011.73 1011.67 1011.27 1010.99
1012.73 1012.16 1011.58 1010.98 1010.34 1009.62 1008.92 1008.23 1007.54 1006.86 1006.00 1005.29 1004.88 1004.35 1004.03 1004.02 1004.06 1004.36 1004.76 1005.21 1005.62 1006.13 1006.07 1006.04 1004.47 1005.17 1006.57 1006.53 1007.93 1008.56 1009.12 1009.69 1010.21 1010.37 1010.71 1010.83 1010.92 1010.98 1011.01 1010.90 1011.20 1010.97 1010.60
1012.36 1011.81 1011.24 1010.66 1009.90 1009.11 1008.26 1007.39 1006.44 1005.63 1004.93 1004.40 1003.90 1003.39 1003.02 1002.72 1002.86 1003.19 1003.61 1004.15 1004.34 1004.58 1004.43 1004.05 1004.36 1005.71 1005.93 1006.83 1007.03 1007.45 1007.99 1008.58 1009.09 1009.26 1009.69 1009.84 1009.97 1009.91 1009.93 1010.15 1010.38 1010.83 1010.67
1012.05 1011.40 1010.86 1010.22 1009.37 1008.60 1007.71 1006.68 1005.46 1004.59 1003.64 1003.40 1002.99 1002.35 1001.84 1001.81 1002.18 1002.41 1002.62 1003.21 1003.85 1003.97 1004.08 1004.40 1004.90 1005.13 1005.43 1005.86 1005.91 1006.71 1007.52 1007.66 1007.93 1008.18 1008.48 1008.73 1008.92 1008.82 1009.09 1009.50 1009.68 1009.93 1009.85
1011.77 1011.17 1010.43 1009.68 1008.88 1008.10 1007.16 1005.81 1004.82 1003.84 1003.03 1002.55 1002.02 1001.38 1001.01 1001.05 1001.39 1001.88 1002.34 1002.87 1003.34 1003.90 1004.07 1004.54 1004.73 1004.86 1005.19 1005.64 1005.89 1006.58 1006.89 1007.09 1007.37 1007.56 1007.43 1007.51 1007.65 1007.73 1008.28 1008.27 1008.68 1009.19 1009.33
1011.48 1010.82 1010.06 1009.20 1008.48 1007.48 1006.45 1005.56 1004.44 1002.93 1002.30 1001.79 1001.28 1000.85 1000.37 1000.35 1000.57 1001.10 1002.00 1002.39 1002.74 1003.17 1003.36 1003.86 1003.97 1004.59 1004.71 1005.13 1005.78 1006.05 1006.44 1006.63 1006.57 1006.55 1006.91 1006.98 1007.12 1007.21 1007.42 1008.00 1008.38 1008.81 1009.08
1011.15 1010.44 1009.52 1008.71 1008.03 1007.26 1006.61 1006.00 1004.40 1002.19 1001.45 1001.42 1000.99 1000.55 1000.28 1000.16 1000.39 1000.63 1001.46 1001.88 1002.21 1002.46 1002.78 1003.00 1003.32 1003.65 1004.21 1004.45 1004.85 1005.42 1005.77 1005.46 1005.80 1005.90 1006.29 1006.47 1006.56 1006.74 1006.89 1006.79 1007.28 1007.88 1008.54
1010.92 1010.01 1009.02 1008.34 1007.71 1007.15 1006.35 1005.95 1005.09 1003.56 1002.01 1001.55 1001.37 1001.10 1000.93 1000.81 1000.83 1000.74 1000.96 1001.32 1001.53 1001.89 1002.31 1002.59 1002.75 1003.09 1003.41 1004.41 1004.93 1004.74 1004.60 1004.79 1004.91 1005.24 1005.33 1005.56 1005.99 1006.35 1006.58 1006.75 1006.71 1007.16 1007.53
1010.59 1009.89 1008.97 1008.30 1007.47 1006.98 1006.33 1005.80 1005.45 1004.72 1003.68 1002.79 1002.23 1001.90 1001.91 1001.59 1001.32 1001.26 1001.11 1001.33 1001.53 1001.79 1002.10 1002.40 1002.93 1003.24 1003.43 1003.82 1004.09 1004.03 1004.00 1004.20 1004.28 1004.37 1004.69 1004.89 1005.37 1005.71 1006.06 1006.29 1006.76 1007.17 1007.15
1010.26 1009.47 1008.82 1007.87 1007.77 1007.45 1006.71 1006.07 1005.91 1005.47 1005.03 1004.50 1003.81 1003.82 1002.93 1002.65 1002.03 1001.87 1001.98 1001.94 1002.02 1002.03 1002.12 1002.85 1003.43 1003.46 1003.47 1003.82 1003.95 1003.57 1003.61 1003.73 1003.79 1004.19 1004.17 1003.96 1004.88 1005.30 1005.72 1006.23 1006.84 1006.74 1006.88
1010.03 1009.17 1008.55 1008.21 1008.02 1007.69 1007.34 1006.76 1006.54 1006.41 1005.95 1005.68 1005.29 1005.15 1004.66 1004.65 1003.61 1002.99 1002.51 1002.51 1002.65 1002.85 1003.14 1003.44 1003.72 1003.96 1003.92 1004.08 1003.95 1003.95 1004.03 1004.11 1004.04 1004.34 1004.58 1005.15 1004.90 1005.09 1005.49 1005.92 1006.61 1007.05 1006.62
1010.11 1009.25 1008.41 1008.28 1007.98 1007.84 1007.53 1007.28 1007.00 1007.01 1007.03 1006.46 1006.27 1006.05 1005.77 1005.24 1005.62 1005.29 1004.61 1003.94 1003.55 1003.59 1003.35 1003.65 1003.97 1004.20 1004.04 1004.00 1004.09 1004.16 1004.32 1004.47 1004.37 1004.56 1004.73 1004.90 1005.02 1005.52 1006.07 1006.37 1006.58 1006.88 1007.19
1010.10 1009.61 1008.98 1008.38 1007.98 1007.79 1007.63 1007.29 1007.15 1007.20 1007.25 1007.14 1006.76 1006.38 1006.32 1006.14 1005.62 1005.33 1005.16 1005.00 1004.83 1004.27 1004.09 1004.35 1004.29 1004.55 1004.52 1004.45 1004.51 1004.62 1004.43 1004.70 1004.98 1005.29 1005.54 1005.78 1006.37 1006.65 1006.91 1007.07 1007.23 1007.29 1007.60
1009.68 1009.35 1008.89 1008.30 1007.94 1007.96 1007.70 1007.66 1007.41 1006.81 1007.27 1007.18 1006.79 1006.40 1006.13 1006.09 1006.02 1005.62 1005.31 1005.19 1005.02 1004.98 1004.88 1005.09 1005.19 1005.25 1005.31 1005.28 1005.55 1005.21 1005.67 1005.67 1005.85 1005.99 1006.54 1006.46 1006.74 1006.94 1007.21 1007.54 1007.56 1007.70 1007.93
1009.16 1008.93 1008.61 1008.32 1008.04 1007.88 1007.70 1007.62 1007.62 1007.62 1007.67 1007.85 1007.06 1007.34 1007.03 1006.62 1006.38 1005.83 1005.31 1004.94 1005.10 1005.07 1005.24 1005.23 1005.25 1005.24 1005.46 1005.52 1005.80 1005.87 1006.19 1006.39 1006.60 1006.95 1007.24 1007.00 1007.08 1007.09 1007.36 1007.84 1007.88 1007.91 1008.07
1008.87 1008.81 1008.40 1008.17 1008.16 1008.18 1007.94 1007.77 1007.68 1007.61 1007.93 1008.01 1007.64 1007.19 1007.01 1006.71 1006.44 1006.50 1006.37 1006.41 1006.46 1006.42 1006.23 1005.99 1006.03 1006.12 1006.02 1006.08 1006.26 1006.37 1006.54 1006.85 1007.12 1007.42 1007.47 1007.39 1007.43 1007.44 1007.53 1007.68 1007.97 1007.87 1007.93
1008.77 1008.52 1008.48 1008.39 1008.25 1008.10 1008.00 1007.98 1007.96 1007.94 1008.15 1008.28 1008.41 1008.43 1008.07 1007.35 1007.59 1007.86 1007.67 1007.55 1007.44 1007.50 1007.41 1007.18 1007.13 1006.93 1007.01 1006.97 1006.85 1007.02 1007.30 1007.48 1007.55 1007.65 1007.72 1007.68 1007.62 1007.58 1007.57 1007.65 1007.75 1007.87 1008.09
1009.14 1008.82 1008.66 1008.66 1008.70 1008.62 1008.46 1008.43 1008.53 1008.57 1008.77 1009.13 1009.46 1009.53 1009.07 1008.71 1008.96 1008.84 1008.87 1008.65 1008.57 1008.54 1008.52 1008.31 1008.26 1008.12 1007.95 1007.86 1007.72 1007.76 1007.80 1007.97 1008.21 1008.15 1008.04 1007.92 1007.76 1007.55 1007.56 1007.52 1007.61 1007.82 1007.88
1009.45 1009.34 1009.22 1009.39 1009.41 1009.23 1009.14 1009.04 1009.01 1009.24 1009.54 1009.79 1010.00 1010.01 1009.71 1009.62 1009.69 1009.68 1009.75 1009.62 1009.50 1009.42 1009.56 1009.40 1009.44 1009.39 1009.26 1009.02 1008.94 1008.93 1008.86 1009.00 1008.72 1008.60 1008.61 1008.55 1008.32 1008.33 1007.92 1007.80 1007.94 1008.03 1007.97
1009.86 1009.86 1009.94 1010.01 1010.02 1010.13 1010.07 1010.10 1010.18 1010.31 1010.54 1010.62 1010.74 1010.79 1010.71 1010.71 1010.76 1010.79 1010.63 1010.53 1010.33 1010.33 1010.14 1009.90 1009.99 1009.99 1009.89 1009.84 1009.59 1009.53 1009.50 1009.56 1009.55 1009.12 1008.70 1008.88 1008.81 1008.69 1008.60 1008.61 1008.26 1008.20 1008.08
1010.44 1010.61 1010.82 1011.02 1011.02 1011.10 1011.13 1011.22 1011.33 1011.42 1011.51 1011.67 1011.67 1011.72 1011.72 1011.65 1011.58 1011.50 1011.33 1011.17 1010.97 1010.87 1010.60 1010.45 1010.48 1010.31 1010.39 1010.37 1010.29 1010.13 1010.06 1010.00 1009.77 1009.55 1009.52 1009.50 1009.44 1009.32 1009.19 1009.08 1008.99 1008.63 1008.40
1011.20 1011.51 1011.71 1011.93 1012.01 1012.14 1012.27 1012.50 1012.57 1012.65 1012.71 1012.82 1012.89 1012.79 1012.67 1012.39 1012.18 1012.06 1011.99 1011.88 1011.60 1011.36 1011.18 1010.97 1010.74 1010.59 1010.74 1010.54 1010.52 1010.59 1010.80 1010.66 1010.49 1010.35 1009.96 1009.90 1009.80 1009.77 1009.73 1009.56 1009.27 1008.98 1008.71
1012.03 1012.40 1012.68 1012.79 1012.92 1013.02 1013.18 1013.29 1013.35 1013.39 1013.44 1013.42 1013.41 1013.30 1013.13 1012.99 1012.79 1012.58 1012.43 1012.13 1011.85 1011.67 1011.54 1011.18 1010.81 1010.77 1010.80 1010.92 1011.12 1011.16 1011.08 1011.00 1010.82 1010.68 1010.36 1010.07 1009.93 1009.73 1009.62 1009.58 1009.39 1009.12 1008.78
Wind_Speed
5 6 7 8 9 10 9 9 9 10 11 12 12 12 11 11 10 9 14 16 15 12 14 12 14 13 9 8 7 8 8 8 11 10 4 5 4 6 5 3 4 5 5
6 6 7 8 8 9 10 11 10 11 11 13 13 12 11 8 7 7 8 12 8 5 12 18 4 7 12 10 9 11 9 10 9 13 6 4 7 5 6 4 4 4 5
6 6 7 9 10 11 10 11 11 11 11 11 12 12 8 10 9 9 10 12 12 13 19 13 12 7 10 8 9 9 8 7 9 8 8 4 5 3 4 4 5 5 4
7 7 8 10 10 11 11 11 12 13 13 12 12 13 10 12 12 12 11 11 12 16 19 24 24 17 16 12 9 11 9 8 7 8 8 6 4 3 3 4 5 3 4
7 8 9 10 10 11 12 12 12 13 14 13 13 13 12 12 12 13 12 12 13 14 17 15 14 12 14 13 8 10 10 9 8 8 8 5 4 3 5 3 5 3 4
7 8 9 10 11 12 12 13 13 17 16 14 15 16 14 11 17 19 16 12 12 13 10 8 10 11 9 11 14 14 12 12 12 8 9 9 10 5 4 5 4 3 3
7 8 9 9 11 13 13 13 14 17 14 12 14 15 15 13 18 21 23 12 10 8 6 4 4 7 9 10 9 12 14 15 15 11 10 11 8 8 5 5 5 4 5
7 9 10 11 11 12 14 15 16 14 12 11 11 12 12 11 15 19 22 13 9 9 8 10 9 10 8 7 5 7 11 12 14 10 12 11 11 8 9 6 7 4 1
7 9 11 12 12 13 13 15 19 15 10 9 8 8 11 9 15 16 15 12 11 10 8 10 11 10 10 12 9 9 9 9 8 13 14 12 10 12 10 5 4 3 3
8 12 12 12 13 12 12 12 19 20 6 6 5 4 7 4 5 11 13 7 10 8 9 10 13 11 12 12 8 10 10 14 11 9 6 7 8 10 13 10 7 4 3
9 11 10 12 12 9 5 5 12 17 9 7 5 6 6 2 3 6 9 6 5 5 6 5 5 9 10 13 16 11 12 9 10 11 9 6 5 5 6 4 4 5 5
8 10 9 10 9 5 5 6 8 10 13 12 12 8 7 6 4 4 8 6 2 4 5 3 3 9 10 11 11 13 13 10 7 7 6 6 6 5 4 4 4 3 1
7 7 9 11 10 8 6 6 6 7 6 8 9 8 10 10 4 11 10 9 9 5 4 8 9 8 9 6 6 4 4 4 5 6 5 1 3 4 4 4 2 3 4
6 7 9 11 11 6 4 4 4 5 5 4 4 4 7 6 8 9 6 5 7 6 7 6 6 5 3 3 3 4 3 2 2 3 3 2 3 3 2 3 3 3 3
5 6 5 7 6 5 3 2 3 1 2 3 4 4 4 4 4 7 7 5 4 3 6 5 5 3 5 1 3 4 3 3 4 2 4 4 5 5 3 0 2 2 2
4 6 5 5 2 4 4 3 4 1 5 7 8 6 2 3 7 10 10 8 8 7 5 3 5 3 7 7 7 5 5 7 5 5 5 5 3 4 2 3 2 2 2
4 5 4 4 4 3 1 2 3 4 7 8 6 5 9 5 10 10 7 2 0 1 2 2 2 2 2 3 1 3 3 3 3 4 3 3 4 3 3 2 2 2 2
6 6 4 4 3 3 3 3 1 1 1 3 4 6 5 6 8 12 10 4 7 7 4 3 3 4 3 4 3 3 4 4 4 3 2 3 3 3 3 2 2 3 2
2 2 4 3 3 4 3 4 3 3 5 3 4 5 9 10 9 13 11 7 4 5 5 4 4 4 3 3 4 4 3 2 2 2 2 2 2 1 1 2 1 3 4
2 4 3 4 3 3 4 4 4 5 5 5 5 5 5 7 11 9 9 8 8 7 6 5 5 4 4 4 4 3 4 4 4 4 3 2 1 1 1 1 2 2 2
4 4 6 4 4 4 3 5 4 6 7 6 4 4 8 8 6 6 7 8 8 7 7 7 6 6 5 4 4 4 5 5 4 4 4 5 4 1 3 3 3 3 2
3 4 5 5 4 5 5 5 5 6 6 5 4 5 10 5 5 5 6 6 5 5 4 4 5 5 5 5 5 4 4 4 4 4 4 4 4 4 4 3 3 2 2
5 5 6 5 5 7 8 7 6 6 6 5 5 5 6 5 5 5 5 5 5 4 4 4 4 4 4 5 5 4 5 5 4 5 5 6 6 6 6 5 4 4 3
6 7 6 5 6 7 6 7 5 8 7 6 5 4 4 4 5 5 4 4 4 5 4 4 3 4 4 4 4 4 4 3 3 4 5 4 4 4 4 4 5 7 6
7 7 7 5 6 5 6 6 6 5 6 5 5 5 5 5 5 5 5 4 4 4 4 3 1 2 4 5 5 6 7 7 6 8 3 3 3 5 4 4 4 5 6
7 7 5 5 5 5 5 5 5 5 5 5 5 5 5 5 4 5 5 5 5 5 5 5 3 1 2 3 4 4 4 5 5 6 4 4 4 3 2 3 5 4 6
Wind_Direction
328 306 298 293 298 302 297 289 277 276 260 252 242 232 227 231 241 253 235 219 225 245 227 204 212 216 211 211 206 207 218 221 238 258 215 228 240 247 269 263 257 253 241
294 288 288 292 289 293 294 293 285 279 275 260 250 233 223 207 200 214 198 136 137 8 8 295 249 227 223 212 201 205 205 210 221 247 235 222 226 218 241 247 255 244 244
297 299 299 298 290 288 277 287 289 282 272 268 252 239 215 192 197 190 171 165 164 164 183 229 269 257 236 221 208 209 204 215 218 235 247 195 220 215 246 254 245 254 229
301 293 287 290 294 293 288 285 284 288 282 266 253 242 216 197 201 196 194 192 195 186 192 190 186 205 215 210 212 214 208 209 211 224 242 238 202 199 197 223 261 244 252
291 293 293 297 295 293 291 289 282 276 277 272 266 252 229 203 207 200 204 204 206 208 207 224 222 201 206 185 199 212 209 214 212 214 232 227 218 191 207 199 219 232 252
296 293 295 298 297 293 290 289 297 280 272 266 266 258 237 210 205 198 194 201 212 230 239 249 240 212 213 227 214 224 208 208 215 211 227 229 232 216 185 194 189 201 268
295 296 293 288 293 292 298 297 306 306 266 264 265 253 230 216 194 205 208 209 208 219 209 203 211 235 217 213 202 223 232 222 220 210 219 214 225 208 190 188 192 188 210
303 300 296 290 291 291 301 315 312 302 284 260 262 252 224 217 198 199 209 210 202 197 191 192 196 203 198 207 205 226 234 229 228 221 219 223 219 206 199 187 190 199 203
301 302 300 299 298 288 305 319 317 304 281 275 261 248 224 212 207 196 187 209 214 210 193 198 188 196 205 197 192 216 230 242 223 223 232 233 233 222 192 143 173 133 230
310 302 301 303 291 299 312 333 325 324 271 273 294 312 255 209 197 193 182 201 217 219 212 211 196 188 189 201 212 216 226 239 229 227 220 226 219 225 207 193 158 166 165
300 297 321 320 310 306 312 327 338 343 357 19 16 22 26 60 113 151 182 186 207 200 205 216 224 230 240 222 216 218 225 235 232 222 224 209 192 185 195 210 174 182 169
304 305 326 326 341 308 327 316 327 344 0 12 21 26 26 2 30 111 102 86 163 182 190 162 136 159 174 202 194 220 232 207 200 205 181 174 177 165 171 160 170 228 276
305 334 346 341 343 329 349 353 350 345 358 9 21 8 31 12 16 73 77 80 72 76 66 88 96 101 109 84 62 90 117 154 159 153 130 150 157 154 134 132 191 202 216
335 352 349 320 321 325 332 5 2 353 355 21 357 352 47 354 1 359 35 58 72 81 83 77 83 59 45 127 93 51 63 76 101 124 111 169 135 99 109 100 153 196 133
294 296 311 312 313 303 315 29 356 76 271 6 356 358 25 14 15 340 356 27 33 57 99 80 73 52 70 342 88 77 90 67 72 45 75 66 60 77 80 60 103 109 160
286 282 289 295 306 254 295 346 182 282 30 59 43 42 52 50 342 351 351 357 353 347 52 68 89 82 80 63 37 41 40 66 62 63 54 68 75 85 73 42 46 86 125
281 291 285 308 352 313 279 14 344 330 61 53 53 64 53 6 348 346 2 69 344 130 115 110 104 108 131 98 99 97 109 78 80 90 93 108 106 88 91 78 78 71 68
278 292 313 321 324 346 359 360 314 22 28 13 329 26 22 12 7 23 14 8 38 24 33 42 100 126 113 111 111 99 90 65 68 83 106 112 107 125 121 121 111 127 128
283 312 348 5 354 15 10 333 330 8 58 40 353 15 2 24 56 40 27 55 33 21 6 31 41 15 35 96 90 82 89 96 122 125 87 108 133 117 125 128 145 145 123
9 31 19 32 15 52 17 37 34 46 54 61 38 10 349 43 40 30 36 40 40 33 20 22 11 43 44 38 57 78 70 43 37 43 19 340 285 202 224 190 160 157 209
347 30 28 56 34 29 59 69 60 70 72 64 54 29 35 73 63 46 38 36 35 34 28 31 24 25 23 19 41 47 57 71 42 33 29 6 344 335 323 253 210 215 218
60 64 60 54 23 37 43 40 54 79 74 71 45 30 28 57 48 48 48 43 37 45 37 48 42 32 27 33 32 33 67 47 50 45 41 19 25 14 7 38 9 316 265
73 63 52 44 55 50 58 48 43 48 45 39 38 34 31 38 40 36 38 28 33 39 33 52 53 42 29 33 31 45 55 43 13 19 50 31 25 15 9 351 353 338 328
81 72 66 59 57 56 47 54 51 50 53 41 30 32 38 38 36 32 29 26 31 19 25 44 56 81 76 60 48 42 42 31 29 40 40 41 27 8 2 357 343 345 326
75 74 67 60 62 60 63 63 63 58 54 45 39 37 22 23 24 14 9 357 358 21 8 4 20 98 96 81 64 52 27 17 22 344 357 22 28 14 357 342 336 320 312
80 78 72 68 65 60 58 54 49 46 45 37 34 32 31 25 20 24 17 18 15 23 13 355 333 33 68 42 55 53 38 30 18 13 350 359 352 357 5 339 334 326 316